Weather observations for the past three days for
Austin City, Austin Camp Mabry
Imperial (Metric)
Date Time (cdt) Wind (mph) Vis. (mi.) Weather Sky Cond. Temperature (ºF) Relative Humidity Wind Chill (°F) Heat Index (°F) Pressure Precipitation (in)
Air Dwpt 6 hour altimeter (in) sea level (mb) 1 hr 3 hr 6 hr
Max. Min.
25 13:51 Vrbl 6 10.00 Mostly Cloudy FEW045 BKN060 91.9 72 52% 100 29.95 1012.5
25 12:51 S 6 10.00 Fair CLR 93 72 93.9 80.1 50% 101 29.96 1012.9
25 11:51 Vrbl 5 10.00 Partly Cloudy SCT047 88 72 59% 95 29.97 1013.3
25 10:51 S 7 10.00 Mostly Cloudy SCT028 BKN038 84.9 73.9 70% 92 29.97 1013.4
25 08:51 Vrbl 5 10.00 Partly Cloudy FEW014 SCT021 81 73.9 79% 86 29.98 1013.7
25 07:51 S 3 10.00 Mostly Cloudy BKN013 BKN021 80.1 75 85% 85 29.97 1013.4
25 06:51 Calm 10.00 Overcast OVC012 80.1 75 82.9 80.1 85% 85 29.96 1012.8
25 05:51 Calm 10.00 Mostly Cloudy BKN013 80.1 75 85% 85 29.95 1012.6
25 04:51 Calm 10.00 Mostly Cloudy SCT013 BKN018 80.1 75 85% 85 29.95 1012.4
25 02:51 Vrbl 6 10.00 Fair CLR 81 75 82% 87 29.94 1012.1
25 01:51 Vrbl 7 10.00 Fair CLR 82 75.9 82% 89 29.94 1012.3
25 00:51 S 8 10.00 Fair CLR 82.9 75 93 82.9 77% 90 29.94 1012.3
24 23:51 Vrbl 7 10.00 Fair CLR 84.9 75 72% 93 29.93 1011.9
24 22:51 Vrbl 6 G 16 10.00 Fair CLR 86 75 70% 95 29.92 1011.5
24 21:51 SE 6 10.00 Fair CLR 87.1 73.9 65% 95 29.9 1011.0
24 20:51 E 7 10.00 Fair CLR 89.1 75 63% 99 29.89 1010.5
24 19:51 E 10 10.00 Fair CLR 91 73.9 57% 101 29.88 1010.4
24 18:51 Vrbl 6 10.00 Fair CLR 93 73 97 90 52% 102 29.89 1010.5
24 17:51 Vrbl 5 10.00 A Few Clouds FEW050 95 71.1 46% 102 29.89 1010.6
24 16:51 Calm 10.00 A Few Clouds FEW055 FEW075 95 70 44% 101 29.91 1011.1
24 15:51 Calm 10.00 A Few Clouds FEW050 FEW065 95 70 44% 101 29.93 1011.9
24 14:51 Vrbl 5 10.00 Mostly Cloudy SCT046 BKN060 95 71.1 46% 102 29.95 1012.7
24 13:51 Vrbl 3 10.00 Mostly Cloudy BKN046 91 71.1 52% 98 29.97 1013.2
24 12:51 Vrbl 7 G 17 10.00 A Few Clouds FEW040 91.9 71.1 93 78.1 51% 99 29.98 1013.6
24 11:51 Vrbl 7 10.00 A Few Clouds FEW032 91 72 54% 99 30 1014.1
24 10:51 SE 6 10.00 A Few Clouds FEW025 87.1 72 61% 94 29.99 1014.1
24 09:51 Vrbl 3 10.00 A Few Clouds FEW021 84.9 73.9 70% 92 30 1014.2
24 07:51 Calm 10.00 Overcast OVC011 80.1 75 85% 85 29.98 1013.7
24 06:51 Calm 10.00 Mostly Cloudy BKN009 78.1 75 81 78.1 90% 81 29.96 1013.0
24 05:51 Calm 10.00 Fair CLR 78.1 73.9 87% 81 29.95 1012.8
24 04:51 Vrbl 3 10.00 Fair CLR 79 75 88% 83 29.94 1012.3
24 02:51 S 3 10.00 Fair CLR 80.1 73.9 82% 85 29.95 1012.6
24 01:51 Vrbl 3 10.00 A Few Clouds FEW035 81 75 82% 87 29.96 1013.0
24 00:51 S 3 10.00 Fair CLR 82 75 93 82 79% 89 29.97 1013.2
23 23:51 Vrbl 5 10.00 Fair CLR 82.9 75 77% 90 29.97 1013.2
23 22:51 Vrbl 5 10.00 Fair CLR 84.9 72 65% 91 29.95 1012.7
23 21:51 SE 6 10.00 Fair CLR 87.1 69.1 55% 91 29.93 1012.1
23 20:51 SE 6 10.00 Fair CLR 88 68 52% 92 29.92 1011.5
23 19:51 Vrbl 3 10.00 Fair CLR 90 64.9 44% 92 29.91 1011.5
23 18:51 SE 6 10.00 Fair CLR 93 64.9 96.1 91 40% 95 29.91 1011.4
23 17:51 E 6 10.00 Fair CLR 93.9 63 36% 95 29.92 1011.5
23 16:51 E 6 10.00 Fair CLR 93.9 64.9 38% 96 29.93 1012.1
23 15:51 Vrbl 5 10.00 Fair CLR 95 63 35% 96 29.95 1012.6
23 14:51 Calm 10.00 Fair CLR 93.9 60.1 32% 94 29.97 1013.2
23 13:51 SE 5 10.00 Fair CLR 93 57.9 31% 92 29.99 1014.0
23 12:51 Vrbl 5 10.00 Fair CLR 91.9 62.1 91.9 75 37% 93 30.01 1014.4
23 11:51 Vrbl 6 10.00 Fair CLR 90 68 48% 94 30.02 1014.8
23 10:51 Calm 10.00 Fair CLR 88 68 52% 92 30.02 1014.9
23 09:51 Vrbl 5 10.00 Fair CLR 84.9 68 57% 88 30.02 1015.1
23 08:51 Calm 10.00 Fair CLR 82 70 67% 86 30.02 1015.1
23 07:51 NW 3 10.00 Fair CLR 78.1 71.1 79% 80 30.02 1015.1
23 06:51 Calm 10.00 Fair CLR 75 71.1 81 75 88% 75 30.01 1014.6
23 05:51 Calm 10.00 Fair CLR 75.9 71.1 85% 76 30 1014.3
23 04:51 Calm 10.00 Fair CLR 75.9 71.1 85% 76 29.99 1014.1
23 03:51 Calm 10.00 Fair CLR 75.9 71.1 85% 76 30 1014.4
23 02:51 Calm 10.00 Fair CLR 78.1 71.1 79% 80 30.01 1014.8
23 01:51 Vrbl 3 10.00 Fair CLR 79 70 74% 82 30.02 1015.1
23 00:51 Vrbl 3 10.00 Fair CLR 81 68 91.9 81 65% 84 30.03 1015.2
22 23:51 Calm 10.00 Fair CLR 82.9 69.1 63% 87 30.03 1015.2
22 22:51 S 3 10.00 Fair CLR 82.9 70 65% 87 30.01 1014.9
22 21:51 SE 5 10.00 Fair CLR 84.9 70 61% 89 30 1014.5
22 20:51 SE 6 10.00 Fair CLR 87.1 70 57% 92 29.98 1013.9
22 19:51 SE 7 10.00 Partly Cloudy SCT075 89.1 69.1 52% 94 29.98 1013.7
22 17:51 SE 7 10.00 Fair CLR 91 66.9 45% 94 29.98 1013.7
22 16:51 Vrbl 3 10.00 A Few Clouds FEW055 93.9 68 43% 98 29.99 1014.0
22 14:51 Calm 10.00 Fair CLR 93 66.9 42% 97 30.03 1015.5
Date Time (cdt) Wind (mph) Vis. (mi.) Weather Sky Cond. Air Dwpt Max. Min. Relative Humidity Wind Chill (°F) Heat Index (°F) altimeter (in) sea level (mb) 1 hr 3 hr 6 hr
6 hour
Temperature (ºF) Pressure Precipitation (in)